Erzurum, Turkey

8:40 PM +03 on April 29, 2017 (GMT +0300)
Erzurum

Weather History for LTCE - September, 2012

Change the Weather History Date:

Friday, September 14, 2012

  Actual Average Record
Temperature  
Mean Temperature 58 °F -  
Max Temperature 78 °F 65 °F 82 °F (2013)
Min Temperature 37 °F 41 °F 33 °F (2002)
Degree Days  
Heating Degree Days 8    
Growing Degree Days 8 (Base 50)    
Moisture  
Dew Point 35 °F    
Average Humidity 48    
Maximum Humidity 87    
Minimum Humidity 7    
Precipitation  
Precipitation 0.00 in 0.04 in - ()
Sea Level Pressure  
Sea Level Pressure 30.11 in    
Wind  
Wind Speed 3 mph ()    
Max Wind Speed 12 mph    
Max Gust Speed -    
Visibility 7.2 miles    
Events      
Averages and records for this station are not official NWS values.
T = Trace of Precipitation, MM = Missing Value Source: Averaged Metar Reports

Daily Weather History Graph

Daily Weather History Graph

Search for Another Location

Airport or City:

Trip Planner

Search our weather history database for the weather conditions in past years. The results will help you decide how hot, cold, wet, or windy it might be!

Date:

Astronomy

Sep. 14, 2012 Rise Set
Actual Time 5:55 AM EEST 6:25 PM EEST
Civil Twilight 5:28 AM EEST 6:52 PM EEST
Nautical Twilight 4:56 AM EEST 7:24 PM EEST
Astronomical Twilight 4:23 AM EEST 7:57 PM EEST
Moon 3:56 AM EEST (9/14) 5:09 PM EEST (9/14)
Length of Visible Light 13h 24m
Length of Day
12h 29m
Waning Crescent, 4% of the Moon is Illuminated
Sep 14
Waning Crescent
Sep 16
New
Sep 22
First Quarter
Sep 30
Full
Oct 8
Last Quarter

Hourly Weather History & Observations

Time (EEST) Temp. Windchill Dew Point Humidity Pressure Visibility Wind Dir Wind Speed Gust Speed Precip Events Conditions
12:20 AM 46.4 °F - 37.4 °F 71% 30.12 in 6.2 mi Variable 2.3 mph - N/A   Partly Cloudy
12:50 AM 48.2 °F - 39.2 °F 71% 30.12 in 6.2 mi Calm Calm - N/A   Partly Cloudy
1:20 AM 44.6 °F 43.1 °F 39.2 °F 81% 30.12 in - ESE 3.5 mph - N/A   Clear
1:50 AM 44.6 °F - 39.2 °F 81% 30.12 in - Calm Calm - N/A   Clear
2:20 AM 44.6 °F - 37.4 °F 76% 30.12 in - Calm Calm - N/A   Clear
3:00 AM 45 °F - 37 °F 66%  in 12 mi Calm Calm - -  
3:20 AM 42.8 °F - 37.4 °F 81% 30.12 in - Calm Calm - N/A   Clear
3:50 AM 42.8 °F - 37.4 °F 81% 30.12 in - Calm Calm - N/A   Clear
4:20 AM 42.8 °F 40.1 °F 37.4 °F 81% 30.12 in - West 4.6 mph - N/A   Clear
4:50 AM 39.2 °F - 35.6 °F 87% 30.12 in - Calm Calm - N/A   Clear
5:20 AM 39.2 °F - 35.6 °F 87% 30.12 in - Calm Calm - N/A   Clear
5:50 AM 39.2 °F - 35.6 °F 87% 30.12 in - SE 1.2 mph - N/A   Clear
6:20 AM 39.2 °F - 35.6 °F 87% 30.12 in - Calm Calm - N/A   Clear
6:50 AM 41.0 °F - 37.4 °F 87% 30.15 in - Calm Calm - N/A   Clear
7:20 AM 46.4 °F 45.2 °F 39.2 °F 76% 30.15 in - West 3.5 mph - N/A   Clear
7:50 AM 51.8 °F - 41.0 °F 67% 30.15 in - WSW 4.6 mph - N/A   Clear
8:20 AM 57.2 °F - 41.0 °F 55% 30.15 in - West 3.5 mph - N/A   Clear
8:50 AM 59.0 °F - 41.0 °F 51% 30.15 in - WNW 3.5 mph - N/A   Clear
9:00 AM 60 °F - 40 °F 37%  in 12 mi NW 3.5 mph - -  
9:20 AM 62.6 °F - 42.8 °F 48% 30.15 in - ENE 4.6 mph - N/A   Clear
9:50 AM 66.2 °F - 42.8 °F 43% 30.15 in 6.2 mi East 5.8 mph - N/A   Partly Cloudy
10:20 AM 69.8 °F - 39.2 °F 33% 30.15 in 6.2 mi East 4.6 mph - N/A   Partly Cloudy
10:50 AM 71.6 °F - 39.2 °F 31% 30.15 in 6.2 mi North 6.9 mph - N/A   Partly Cloudy
11:20 AM 71.6 °F - 37.4 °F 29% 30.12 in 6.2 mi NW 5.8 mph - N/A   Partly Cloudy
11:50 AM 73.4 °F - 35.6 °F 25% 30.12 in 6.2 mi Variable 3.5 mph - N/A   Partly Cloudy
12:20 PM 73.4 °F - 35.6 °F 25% 30.12 in 6.2 mi Variable 8.1 mph - N/A   Partly Cloudy
12:50 PM 75.2 °F - 30.2 °F 19% 30.12 in 6.2 mi NW 5.8 mph - N/A   Partly Cloudy
1:20 PM 75.2 °F - 33.8 °F 22% 30.09 in 6.2 mi NNE 5.8 mph - N/A   Partly Cloudy
2:20 PM 75.2 °F - 30.2 °F 19% 30.09 in 6.2 mi North 8.1 mph - N/A   Partly Cloudy
2:50 PM 77.0 °F - 26.6 °F 16% 30.09 in 6.2 mi WNW 11.5 mph - N/A   Partly Cloudy
3:00 PM 76 °F - 25 °F 7%  in 12 mi WNW 11.5 mph - -   Scattered Clouds
3:20 PM 77.0 °F - 23.0 °F 13% 30.09 in 6.2 mi Variable 3.5 mph - N/A   Partly Cloudy
3:50 PM 77.0 °F - 21.2 °F 12% 30.06 in 6.2 mi West 6.9 mph - N/A   Partly Cloudy
4:20 PM 77.0 °F - 17.6 °F 11% 30.06 in 6.2 mi West 11.5 mph - N/A   Partly Cloudy
4:50 PM 75.2 °F - 23.0 °F 14% 30.06 in 6.2 mi West 11.5 mph - N/A   Partly Cloudy
5:50 PM 69.8 °F - 28.4 °F 21% 30.06 in 6.2 mi West 5.8 mph - N/A   Partly Cloudy
6:20 PM 69.8 °F - 30.2 °F 23% 30.06 in 6.2 mi West 5.8 mph - N/A   Partly Cloudy
6:50 PM 66.2 °F - 33.8 °F 30% 30.06 in 6.2 mi WSW 5.8 mph - N/A   Partly Cloudy
7:20 PM 62.6 °F - 32.0 °F 32% 30.06 in 6.2 mi West 6.9 mph - N/A   Partly Cloudy
7:50 PM 62.6 °F - 32.0 °F 32% 30.09 in - SW 5.8 mph - N/A   Clear
8:20 PM 62.6 °F - 35.6 °F 37% 30.09 in - West 5.8 mph - N/A   Clear
8:50 PM 59.0 °F - 37.4 °F 45% 30.12 in - West 8.1 mph - N/A   Clear
9:00 PM 59 °F - 36 °F 30%  in 12 mi West 8.1 mph - -  
9:20 PM 60.8 °F - 35.6 °F 39% 30.12 in - WNW 5.8 mph - N/A   Clear
9:50 PM 55.4 °F - 37.4 °F 51% 30.12 in - Variable 1.2 mph - N/A   Clear
10:20 PM 51.8 °F - 35.6 °F 54% 30.12 in - Variable 2.3 mph - N/A   Clear
10:50 PM 50.0 °F - 35.6 °F 58% 30.12 in - WSW 3.5 mph - N/A   Clear
11:20 PM 51.8 °F - 35.6 °F 54% 30.15 in - Variable 1.2 mph - N/A   Clear
11:50 PM 51.8 °F - 35.6 °F 54% 30.15 in - SSW 6.9 mph - N/A   Clear